This demonstration page uses our WeatherBlox Daily Observations layout. Learn more.

Left ArrowRight Arrow

Hourly Observations for July 9, 2018

Temp ( °F °C ) Dew Point ( °F °C ) Humidity (%) Winds ( mph kmh ) Pressure ( in mb ) Visibility ( mi km ) Precip ( " mm )
12:53 am 00:53 Clear 71 21.7 67 19.4 87 87 NE 6 9 30.04 1017 10 16 0.00 0.00
1:53 am 01:53 Clear 70 21.1 67 19.4 90 90 NNE 3 6 30.03 1017 10 16 0.00 0.00
2:53 am 02:53 Clear 70 21.1 67 19.4 90 90 Calm 30.04 1017 10 16 0.00 0.00
3:53 am 03:53 Mostly Clear 71 21.7 67 19.4 87 87 Calm 30.02 1017 10 16 0.00 0.00
4:53 am 04:53 Mostly Clear 70 21.1 67 19.4 90 90 ESE 5 7 30.02 1017 10 16 0.00 0.00
5:53 am 05:53 Mostly Clear 70 21.1 67 19.4 90 90 E 6 9 30.04 1017 10 16 0.00 0.00
6:53 am 06:53 Cloudy 70 21.1 67 19.4 90 90 E 3 6 30.06 1018 10 16 0.00 0.00
7:53 am 07:53 Mostly Cloudy 70 21.1 67 19.4 90 90 ESE 3 6 30.09 1019 10 16 0.00 0.00
8:53 am 08:53 Sunny 72 22.2 68 20 87 87 SE 5 7 30.10 1019 10 16 0.00 0.00
9:53 am 09:53 Sunny 74 23.3 68 20 82 82 ESE 6 9 30.11 1020 10 16 0.00 0.00
10:53 am 10:53 Mostly Cloudy 76 24.4 68 20 77 77 ESE 6 9 30.12 1020 10 16 0.00 0.00
11:53 am 11:53 Mostly Sunny 79 26.1 67 19.4 67 67 ESE 8 13 30.13 1020 10 16 0.00 0.00
12:53 pm 12:53 Sunny 82 27.8 65 18.3 56 56 VRB 5 7 30.09 1019 10 16 0.00 0.00
1:53 pm 13:53 Partly Cloudy 85 29.4 64 17.8 50 50 VRB 6 9 30.07 1018 10 16 0.00 0.00
2:53 pm 14:53 Mostly Sunny 87 30.6 62 16.7 43 43 SE 9 15 30.03 1017 10 16 0.00 0.00
3:06 pm 15:06 Partly Cloudy with Nearby Thunderstorms 86 30 62 16.7 45 45 VRB 5 7 29.94 1014 10 16 0.00 0.00
3:21 pm 15:21 Mostly Sunny 88 31.1 62 16.7 42 42 E 8 13 29.94 1014 10 16 0.00 0.00
3:53 pm 15:53 Mostly Sunny 88 31.1 63 17.2 43 43 undefined N/A 30.01 1016 10 16 0.00 0.00
4:13 pm 16:13 Mostly Cloudy with Nearby Thunderstorms 86 30 64 17.8 48 48 SSE 8 13 29.94 1014 10 16 0.00 0.00
4:24 pm 16:24 Mostly Cloudy with Thunderstorms 83 28.3 65 18.3 55 55 NE 12 19 29.97 1015 10 16 0.00 0.00
4:49 pm 16:49 Mostly Sunny 81 27 63 17 54 54 N 8 13 29.97 1015 10 16 0.00 0.00
4:53 pm 16:53 Mostly Sunny 82 27.8 62 16.7 51 51 N 7 11 30.03 1017 10 16 0.00 0.00
5:53 pm 17:53 Sunny 85 29.4 66 18.9 53 53 NNE 12 19 30.02 1017 10 16 0.00 0.00
6:53 pm 18:53 Sunny 84 28.9 64 17.8 51 51 ENE 15 24 30.01 1016 10 16 0.00 0.00
7:53 pm 19:53 Mostly Sunny 83 28.3 63 17.2 51 51 ESE 15 24 30.04 1017 10 16 0.00 0.00
8:53 pm 20:53 Sunny 80 26.7 64 17.8 58 58 ESE 12 19 30.04 1017 10 16 0.00 0.00
9:53 pm 21:53 Clear 78 25.6 65 18.3 64 64 ESE 10 17 30.06 1018 10 16 0.00 0.00
10:53 pm 22:53 Clear 76 24.4 66 18.9 72 72 SE 9 15 30.06 1018 10 16 0.00 0.00
11:53 pm 23:53 Clear 74 23.3 66 18.9 76 76 SE 5 7 30.07 1018 10 16 0.00 0.00

Powered by AerisWeather